Vorticity
12 12 8 2 6 5 5 5 6 6 6 8 7 4 5 4 3 4 4 5 7 6 4 8 16 20 12 15 6 5 0 1 1 14 10 32 3 8 -7 16 -11 10 29 17 -2
2 15 8 7 1 5 5 6 5 6 6 6 8 10 6 6 5 4 6 5 8 8 4 3 7 8 23 18 9 8 6 8 10 13 2 5 29 -7 10 3 -21 10 -39 -4 9
-1 4 11 10 16 5 5 6 6 7 5 6 6 8 10 9 6 6 5 7 7 10 11 5 6 9 3 2 17 10 7 7 9 7 10 1 5 22 -4 4 15 1 -3 -23 6
14 10 3 3 14 8 7 6 5 6 7 7 6 6 7 9 8 6 5 5 5 7 9 12 7 5 -0 3 6 9 16 7 7 5 3 0 8 19 8 7 -4 4 -6 5 -4
5 7 10 9 5 8 9 10 8 7 6 6 8 6 6 8 5 8 7 6 5 6 7 11 14 6 3 3 8 6 8 9 12 2 10 0 4 13 24 -7 16 9 15 6 20
5 3 4 9 11 5 6 5 7 7 7 8 8 9 7 8 8 6 6 7 6 5 7 6 6 10 11 7 7 13 8 6 9 8 9 -2 6 -6 17 22 -8 10 9 11 27
11 8 6 2 5 10 9 5 3 7 5 8 8 11 10 4 7 6 7 6 6 6 6 6 5 9 15 10 10 14 5 3 6 4 11 9 0 3 14 24 -1 -11 8 2 5
11 12 11 8 5 2 8 9 10 4 3 6 6 7 12 7 10 9 8 7 6 6 6 6 6 7 9 13 10 12 5 3 2 16 7 8 3 6 -4 36 9 9 19 9 -1
14 14 12 11 11 7 4 4 8 9 10 3 5 6 7 11 10 6 7 8 7 7 6 7 7 7 7 8 11 11 5 6 6 4 9 13 -0 13 8 1 17 15 21 9 7
13 15 15 15 12 10 9 7 3 6 8 9 8 8 7 5 6 5 5 6 7 7 7 6 6 5 8 7 10 17 17 3 3 5 9 9 6 5 -2 3 14 -2 -7 4 38
7 8 8 17 16 14 12 12 10 7 4 5 9 11 8 7 9 7 7 8 6 7 8 7 6 7 11 13 16 12 17 15 16 12 10 10 8 11 6 4 7 12 4 0 4
13 13 17 8 15 13 12 13 12 10 8 8 7 12 9 7 7 7 7 6 8 9 8 5 8 12 9 7 9 13 13 9 6 9 10 12 17 9 7 5 7 11 1 3 6
8 16 19 11 6 16 10 10 13 11 9 9 9 6 11 9 7 7 7 6 7 8 8 7 12 10 9 9 6 6 9 12 10 6 7 6 9 6 6 -1 5 3 9 5 5
8 15 21 18 15 8 3 7 14 13 15 6 10 10 7 11 8 7 6 3 7 9 9 6 9 3 5 7 10 10 12 4 6 6 4 2 1 18 13 16 12 2 3 6 8
17 18 18 26 23 17 5 14 12 15 17 13 14 6 9 5 16 9 8 8 7 7 9 12 10 8 6 15 10 11 11 5 5 8 11 10 13 26 17 16 18 20 22 24 14
21 22 19 19 23 20 20 15 16 16 16 16 11 12 16 6 9 9 6 9 5 7 7 8 7 7 11 13 13 4 -1 15 15 6 2 13 12 17 10 17 11 9 10 10 17
16 16 19 19 16 17 18 18 18 8 16 16 5 15 17 15 9 14 9 6 5 9 5 10 5 7 8 5 4 7 11 6 -1 -3 7 19 10 5 25 19 -4 -1 10 23 12
13 13 15 17 19 18 18 19 15 14 17 10 5 13 12 13 13 13 16 6 6 8 8 13 6 6 7 8 7 10 6 6 -4 9 26 12 6 -8 16 14 11 12 25 16 8
13 14 14 14 15 18 18 17 19 16 14 16 6 18 22 7 9 18 7 10 7 9 11 9 11 9 5 10 10 3 5 12 2 5 2 3 -5 16 1 -4 -10 32 13 13 4
17 12 15 14 12 16 17 19 18 17 17 23 8 -1 14 18 13 12 11 9 4 5 12 13 12 10 8 8 8 8 9 7 6 9 5 10 11 18 26 34 34 10 12 16 14
15 14 14 15 15 12 17 17 20 17 15 12 19 11 2 13 5 14 10 12 9 4 11 12 12 9 7 4 11 4 2 7 2 -1 12 10 8 4 7 11 14 13 11 10 8
15 11 10 13 14 11 15 14 17 19 13 12 13 13 9 6 18 4 11 15 16 2 9 9 10 11 5 4 9 6 6 12 12 5 10 8 8 13 12 9 16 6 3 5 6
11 9 10 10 11 12 12 14 18 16 15 12 14 5 13 9 3 21 6 9 14 10 4 7 8 7 11 5 6 7 3 6 8 6 4 5 5 11 10 13 2 12 15 13 13
12 12 11 11 10 11 10 13 19 20 16 15 8 18 10 13 11 4 17 10 9 6 4 7 8 8 11 4 5 -3 0 5 8 11 9 11 5 6 8 7 4 5 6 9 13
13 12 12 12 12 10 10 10 11 19 18 16 21 6 7 15 9 10 7 22 13 11 8 12 7 3 4 9 6 13 12 3 6 6 8 1 2 6 6 6 6 4 4 10 13
11 12 12 10 11 9 12 10 12 13 15 18 16 19 -0 12 -0 5 5 -1 15 15 15 12 9 3 10 6 10 4 12 11 2 7 3 2 8 6 8 4 5 5 7 12 10
12 12 12 13 11 12 10 10 13 14 13 16 16 17 17 -4 3 4 9 9 8 16 18 8 13 5 3 7 2 8 7 9 6 4 7 5 -1 7 8 5 5 4 6 9 9
Height
5744 5745 5746 5747 5748 5749 5750 5751 5752 5754 5755 5756 5758 5760 5762 5763 5763 5764 5765 5767 5767 5769 5769 5770 5770 5773 5777 5781 5785 5790 5795 5795 5797 5802 5808 5814 5814 5817 5817 5821 5822 5823 5822 5824 5828
5738 5738 5738 5739 5739 5742 5743 5745 5747 5747 5749 5751 5752 5755 5756 5758 5758 5759 5762 5762 5764 5765 5766 5767 5768 5771 5773 5776 5780 5786 5791 5793 5795 5798 5802 5807 5810 5813 5816 5816 5818 5818 5819 5818 5820
5730 5731 5731 5732 5732 5734 5736 5738 5739 5741 5743 5745 5746 5749 5750 5752 5754 5755 5756 5757 5759 5761 5762 5764 5766 5768 5771 5773 5777 5782 5786 5787 5790 5793 5796 5800 5804 5809 5810 5812 5814 5816 5818 5822 5822
5722 5723 5723 5724 5724 5726 5727 5730 5731 5733 5735 5738 5740 5742 5744 5746 5749 5749 5751 5752 5754 5755 5757 5759 5763 5765 5767 5770 5772 5777 5778 5780 5783 5787 5790 5794 5798 5803 5806 5807 5812 5814 5816 5818 5821
5714 5713 5713 5714 5715 5718 5719 5721 5724 5726 5728 5730 5732 5735 5737 5740 5740 5744 5745 5747 5749 5750 5753 5755 5758 5760 5763 5765 5767 5771 5773 5776 5780 5783 5785 5788 5792 5797 5799 5802 5806 5810 5813 5816 5816
5705 5704 5705 5706 5707 5709 5711 5713 5715 5717 5720 5722 5724 5728 5731 5733 5735 5737 5739 5741 5744 5745 5747 5750 5752 5755 5757 5759 5760 5764 5768 5769 5773 5778 5782 5786 5790 5794 5796 5798 5801 5804 5806 5809 5811
5695 5695 5696 5697 5699 5700 5702 5704 5707 5709 5712 5714 5717 5719 5724 5724 5727 5730 5734 5735 5738 5740 5741 5744 5747 5751 5752 5752 5753 5760 5762 5764 5768 5773 5777 5781 5785 5788 5791 5793 5798 5800 5802 5802 5804
5685 5685 5686 5687 5689 5691 5693 5694 5697 5699 5702 5705 5708 5711 5717 5716 5723 5725 5727 5729 5731 5734 5736 5739 5741 5744 5745 5746 5748 5754 5759 5760 5764 5768 5772 5777 5779 5783 5786 5788 5790 5793 5794 5797 5799
5674 5675 5676 5677 5679 5681 5682 5684 5686 5689 5692 5696 5699 5704 5708 5711 5717 5714 5719 5723 5724 5728 5729 5732 5735 5737 5739 5741 5743 5747 5752 5755 5759 5764 5769 5772 5775 5778 5782 5781 5784 5787 5789 5791 5795
5664 5664 5664 5666 5668 5671 5672 5674 5676 5679 5682 5686 5690 5695 5699 5703 5706 5706 5710 5715 5718 5721 5724 5726 5728 5730 5734 5737 5739 5742 5746 5750 5755 5761 5764 5767 5769 5773 5776 5777 5777 5781 5785 5787 5789
5650 5651 5652 5654 5656 5658 5660 5663 5666 5669 5672 5676 5681 5686 5690 5694 5698 5701 5703 5706 5710 5714 5718 5719 5722 5726 5730 5733 5735 5738 5742 5748 5752 5753 5758 5760 5762 5764 5766 5769 5772 5775 5779 5782 5783
5637 5637 5638 5640 5643 5646 5647 5650 5653 5658 5662 5665 5669 5675 5678 5683 5689 5692 5697 5699 5704 5708 5710 5712 5719 5723 5721 5724 5728 5732 5734 5739 5743 5745 5747 5751 5754 5756 5758 5761 5764 5768 5773 5776 5779
5621 5623 5625 5625 5628 5632 5634 5637 5639 5642 5647 5654 5659 5665 5668 5674 5678 5683 5688 5692 5696 5700 5704 5708 5716 5712 5714 5718 5722 5725 5729 5734 5737 5739 5741 5745 5745 5747 5751 5754 5757 5762 5766 5770 5772
5605 5605 5608 5610 5614 5616 5620 5622 5624 5628 5632 5643 5647 5654 5656 5663 5669 5674 5678 5682 5687 5692 5696 5700 5704 5704 5709 5712 5717 5721 5727 5729 5729 5732 5735 5737 5738 5740 5746 5750 5752 5755 5760 5763 5765
5593 5592 5592 5594 5596 5600 5606 5605 5610 5615 5619 5630 5635 5637 5645 5650 5662 5666 5671 5673 5680 5685 5687 5697 5698 5700 5703 5709 5711 5718 5722 5725 5726 5726 5728 5729 5730 5735 5736 5741 5747 5750 5752 5756 5758
5581 5580 5580 5581 5582 5587 5587 5591 5597 5602 5608 5614 5620 5625 5633 5638 5646 5654 5659 5665 5670 5674 5678 5687 5689 5690 5699 5705 5707 5714 5712 5715 5718 5719 5717 5726 5725 5730 5731 5740 5739 5743 5746 5749 5751
5570 5570 5570 5569 5572 5572 5573 5579 5584 5589 5599 5602 5607 5614 5621 5629 5637 5644 5650 5654 5659 5664 5668 5677 5680 5686 5693 5695 5698 5702 5704 5705 5708 5708 5710 5720 5718 5728 5731 5734 5736 5738 5739 5742 5744
5561 5561 5561 5560 5562 5562 5563 5568 5573 5581 5585 5590 5597 5603 5609 5617 5624 5633 5640 5645 5651 5657 5664 5670 5673 5677 5683 5687 5691 5695 5697 5697 5699 5705 5712 5712 5713 5726 5726 5725 5728 5730 5731 5732 5736
5552 5552 5552 5552 5552 5553 5555 5559 5566 5568 5575 5582 5588 5593 5600 5606 5613 5621 5628 5636 5645 5651 5658 5662 5666 5673 5679 5684 5688 5688 5689 5701 5702 5704 5705 5707 5712 5717 5720 5721 5725 5726 5727 5730 5734
5544 5544 5544 5544 5544 5545 5547 5552 5556 5559 5565 5572 5578 5584 5591 5598 5603 5609 5617 5625 5635 5641 5649 5655 5661 5667 5673 5677 5680 5682 5691 5691 5691 5696 5698 5703 5709 5712 5714 5715 5719 5721 5723 5725 5727
5536 5536 5536 5536 5537 5538 5540 5544 5549 5552 5556 5565 5569 5574 5582 5587 5594 5600 5609 5618 5628 5634 5641 5647 5653 5660 5665 5667 5671 5675 5679 5684 5690 5692 5695 5699 5705 5709 5712 5713 5715 5717 5720 5722 5725
5530 5530 5530 5529 5531 5531 5533 5535 5539 5542 5547 5555 5563 5567 5575 5581 5588 5593 5599 5609 5618 5624 5630 5639 5643 5650 5657 5664 5667 5671 5676 5680 5682 5686 5690 5695 5701 5705 5708 5710 5712 5713 5716 5719 5721
5524 5524 5523 5524 5524 5525 5528 5530 5532 5535 5541 5547 5554 5560 5566 5574 5583 5587 5592 5600 5607 5614 5620 5629 5633 5641 5648 5656 5658 5659 5666 5672 5678 5683 5684 5691 5697 5701 5704 5707 5710 5711 5712 5713 5716
5519 5518 5518 5517 5519 5520 5522 5524 5527 5529 5533 5539 5547 5553 5559 5566 5573 5579 5585 5593 5598 5606 5613 5621 5625 5632 5639 5646 5651 5653 5660 5666 5672 5675 5681 5685 5692 5696 5700 5703 5705 5707 5708 5710 5711
5512 5512 5512 5511 5512 5514 5515 5518 5521 5524 5527 5531 5539 5542 5548 5557 5564 5572 5579 5586 5592 5599 5603 5611 5616 5624 5631 5638 5644 5651 5658 5662 5666 5672 5675 5683 5685 5690 5694 5697 5700 5702 5704 5707 5708
5506 5506 5505 5505 5505 5506 5508 5510 5513 5518 5521 5523 5530 5536 5541 5551 5557 5565 5569 5577 5583 5591 5596 5601 5608 5616 5622 5630 5635 5640 5647 5653 5658 5663 5667 5673 5678 5685 5687 5690 5695 5698 5700 5702 5704
5500 5499 5498 5498 5497 5499 5499 5501 5505 5510 5513 5515 5520 5527 5534 5541 5549 5556 5561 5567 5576 5583 5589 5595 5599 5605 5612 5621 5627 5629 5636 5644 5649 5655 5662 5665 5679 5678 5680 5686 5689 5692 5695 5697 5699